Preview of NWS' New Version of Forecast
This preview is not operational and should not be used for support decisions.

Regional Weather Roundup (RWR)

Issued by National Weather Service (NWS)

                            
000
ASUS45 KBOI 222310
RWRID 

IDAHO REGIONAL WEATHER ROUNDUP
NATIONAL WEATHER SERVICE BOISE ID
500 PM MDT SUN SEP 22 2019

NOTE: "FAIR" INDICATES FEW OR NO CLOUDS BELOW 12000 FEET
WITH NO SIGNIFICANT WEATHER AND/OR OBSTRUCTIONS TO VISIBILITY

IDZ012-014-230000-
SOUTHWEST IDAHO

  
CITY           SKY/WX    TMP DP  RH WIND       PRES   REMARKS
BOISE          MOSUNNY   77  37  23 E8        29.90F                  
CALDWELL       MOSUNNY   76  44  32 NE7       29.89F                  
MOUNTAIN HOME  MOSUNNY   78  36  21 E10       29.90F                  
$$

IDZ016-017-230000-
SOUTHCENTRAL IDAHO

  
CITY           SKY/WX    TMP DP  RH WIND       PRES   REMARKS
BURLEY         SUNNY     74  33  22 S9        29.97F                  
JEROME         SUNNY     76  37  24 E9        29.96F                  
TWIN FALLS     SUNNY     76  36  23 NW12G18   29.95F                  
$$

IDZ019>023-230000-
SOUTHEAST IDAHO

  
CITY           SKY/WX    TMP DP  RH WIND       PRES   REMARKS
IDAHO FALLS    SUNNY     68  38  33 S10       30.07F                  
POCATELLO      MOSUNNY   71  32  23 S12       30.05F                  
REXBURG        SUNNY     65  37  35 SW8       30.08F                  
$$

IDZ006-010-011-018-031-032-230000-
CENTRAL IDAHO MOUNTAINS

  
CITY           SKY/WX    TMP DP  RH WIND       PRES   REMARKS
MCCALL         MOSUNNY   64  38  38 S13       29.98F                  
HAILEY         SUNNY     64  39  39 SE12      30.07F                  
STANLEY          N/A     67  34  29 SW8       30.04S                  
SALMON         MOSUNNY   72  44  36 N7        29.90F                  
CHALLIS        PTSUNNY   70  38  31 CALM      29.95F                  
$$

IDZ002-004-006-007-026-230000-
NORTHERN IDAHO

  
CITY           SKY/WX    TMP DP  RH WIND       PRES   REMARKS
LEWISTON       PTSUNNY   81  45  28 NW10      29.79F                  
LOWELL           N/A     70  57  63 CALM      29.81F                  
COEUR D'ALENE  CLOUDY    71  46  40 W10       29.85F                  
MULLAN PASS    PTSUNNY   58  40  51 VRB3      29.99F                  
$$